Starlink 32752

operational
NORAD ID: 62567 Int'l Des: 2025-006 Owner: SPXS Country: US Constellation: starlink
LEOCIRCULAR

Über Starlink 32752

Beschreibung wird geladen...

Live-Position

3D-Globus wird geladen...

Nächste Überflüge

Höhenverlauf

Altitude vs Time

uPlot chart will show altitude changes over time

Zweizeiliger Elementsatz

1 62567U 25006P 25351.51187763 .00029882 00000-0 10902-2 0 9996
2 62567 43.0052 36.7602 0002089 272.3006 87.7607 15.27604758 52293
Epoch: 17. Dez. 2025 • Age: 14 hours

Aktueller Status

Höhe 486.2 km
Geschwindigkeit 7.63 km/s
Subsatellitenpunkt 38.22°N, 36.84°W
Startdatum 10. Jan. 2025
Alter 0.9 years
Typ internet

Technische Details

Klassifizierung Payload
Masse 730.00 kg
Trockenmasse 700.00 kg
Gesamtmasse 730.00 kg
Länge 0.30 m
Durchmesser 4.10 m
Spannweite 29.00 m
Form Box + pan
Hersteller SPXS
Bus-Typ Starlink V2M
Phasenstatus In Orbit
Besitzer/Staat SPXS/US

Große Konstellationen

Loading constellations...